Regional Weather Roundup
Issued by NWS Northern Indiana

Home | Current Version | Previous Version | Graphics & Text | Print | Product List | Glossary Off
Versions: 1 2 3 4 5 6 7 8 9 10 11 12 13 14 15 16 17 18 19 20 21 22 23 24 25 26 27 28 29 30 31 32 33 34 35 36 37 38 39 40 41 42 43 44 45 46 47 48 49 50

000
ASUS43 KIWX 230910
RWRIWX

KIWX WEATHER ROUNDUP
NATIONAL WEATHER SERVICE NORTHERN INDIANA
500 AM EDT SAT JUL 23 2016

NOTE: "FAIR" INDICATES FEW OR NO CLOUDS BELOW 12,000 FEET WITH NO
SIGNIFICANT WEATHER AND/OR OBSTRUCTIONS TO VISIBILITY.

* THESE STATIONS ARE NOT UNDER NWS QUALITY CONTROL. THEY ALSO MAY NOT
  REPORT WEATHER SUCH AS PRECIPITATION OR FOG.

INZ001>027-231000-
NORTHERN INDIANA

CITY           SKY/WX    TMP DP  RH WIND       PRES   REMARKS
GARY*          CLOUDY    79  79 100 CALM      29.99S
VALPARAISO     CLEAR     74  72  93 CALM      30.00F
MICHIGAN CITY* CLEAR     72  72 100 CALM      30.00S
LAPORTE*       CLEAR    N/A N/A N/A CALM      30.00F
KNOX*          CLEAR     70  68  94 CALM      30.00F
SOUTH BEND     CLEAR     72  72 100 CALM      30.00F
GOSHEN         FOG       69  67  93 CALM      30.00F VSB 1/4
MONTICELLO*    CLEAR     71  67  88 CALM      30.00S
LOGANSPORT*    PTCLDY    68  68 100 CALM      30.02S FOG
ROCHESTER*     CLEAR     75  75 100 CALM      30.01F
WARSAW*        CLEAR     72  72 100 CALM      30.00F
ANGOLA*        CLEAR     66  57  72 CALM      30.01S
FORT WAYNE     PTCLDY    71  69  93 S3        30.01R
HUNTINGTON*    CLEAR    N/A N/A N/A CALM      30.01S
PERU/GRISSOM   CLEAR     70  70 100 S3        30.00S
MARION*        CLEAR     68  68 100 CALM      30.02F

$$
INZ028>050-231000-
CENTRAL INDIANA

CITY           SKY/WX    TMP DP  RH WIND       PRES   REMARKS
LAFAYETTE      FOG       70  70 100 CALM      30.00S VSB 1/2
KOKOMO*        CLEAR     70  64  83 CALM      30.01F
MUNCIE*        CLEAR     72  69  90 CALM      30.02F
INDIANAPOLIS   PTCLDY    74  71  91 CALM      30.02S

$$
MIZ043>046-050>051-056>058-064>065-071>073-077>080-231000-
SOUTHWEST LOWER MICHIGAN

CITY           SKY/WX    TMP DP  RH WIND       PRES   REMARKS
BATTLE CREEK   CLEAR     64  64 100 SW3       30.00F
BENTON HARBOR  CLEAR     68  66  93 CALM      29.98F
COLDWATER*     FOG       66  66 100 CALM      30.00F VSB<1/4
HOLLAND        PTCLDY    64  63  96 CALM      29.99F FOG
GRAND RAPIDS   CLEAR     68  65  90 W3        30.00R FOG
KALAMAZOO      FOG       67  64  90 CALM      29.99F VSB 1/4
STURGIS*       PTCLDY    66  66  99 CALM      29.99F FOG
THREE RIVERS*  FOG       66  65  96 CALM      30.01S VSB 3/4

$$
OHZ001>008-015>018-024>025-231000-
NORTHWEST OHIO

CITY           SKY/WX    TMP DP  RH WIND       PRES   REMARKS
WAUSEON*       FAIR      70  68  94 W5        30.00R
DEFIANCE       CLEAR     71  68  90 CALM      30.00S
FINDLAY        CLEAR     74  69  85 W5        30.00R
TOLEDO EXPRESS CLEAR     73  72  96 W3        29.99S
TOLEDO METCALF CLEAR     74  71  91 NW5       29.99S
LIMA           CLEAR     71  71 100 SW3       30.02R

$$
AND FOR LAKE MICHIGAN COASTAL AND OPEN LAKE BUOY OBSERVATIONS

STATION/POSITION TEMP    WIND        PRES    VSBY  WAVE
                 AIR SEA DIR/SP/G                  HT/PER
                 (F)     (DEG/KT/KT) (MB)    (MI)  (FT/S)
CALUMET HARBOR    80     240/  2/  3 1014.7F
MICHIGAN CITY     78     180/  7/  8   N/A
BURNS HARBOR      79     210/  7/ 15 1015.9S
SAINT JOSEPH      78     190/  4/  7 1015.6F
SOUTH LAKE BUOY   75 73  200/  4/  4 1014.4F         0
4 MI NW BRIDGMAN  76 75  150/  2/  4 1015.0S         0
MICHIGAN CITY     76 74  230/  6/  6   N/A           1

$$
&&



USA.gov is the U.S. government's official web portal to all federal, state and local government web resources and services.